User: anonymous   Login
Location: Unspecified
(0.0000°N, 0.0000°E)
Time: 13:55:04
(UTC+02:00)
Language:

Iridium 75 - Orbit

View from above orbital plane
View from above orbital plane
View from above satellite
View from above satellite

Ground track
Ground track

The orbit data is extracted from the following two-line orbital elements,

1 25346U 98032E   14297.51535368  .00000523  00000-0  17971-3 0   349
2 25346 086.3947 268.1232 0002202 100.9385 038.1397 14.34215302861118
Epoch (UTC): 24 October 2014 12:22:06
Eccentricity: 0.0002202
inclination: 86.3947°
perigee height: 776 km
apogee height: 779 km
right ascension of ascending node: 268.1232°
argument of perigee: 100.9385°
revolutions per day: 14.34215302
mean anomaly at epoch: 38.1397°
orbit number at epoch: 86111

The dashed part of the orbit path shows where the satellite is in the earth's shadow,  

DLR